Weather History for KOZW - December, 2012

Change the Weather History Date:

Monday, December 10, 2012

  Actual Average Record
Temperature  
Mean Temperature 34 °F -  
Max Temperature 38 °F 37 °F 48 °F (1999)
Min Temperature 29 °F 24 °F 8 °F (2013)
Degree Days  
Heating Degree Days 31    
Moisture  
Dew Point 30 °F    
Average Humidity 84    
Maximum Humidity 96    
Minimum Humidity 66    
Precipitation  
Precipitation 0.00 in - - ()
Sea Level Pressure  
Sea Level Pressure 29.68 in    
Wind  
Wind Speed 6 mph (WNW)    
Max Wind Speed 14 mph    
Max Gust Speed 21 mph    
Visibility 8 miles    
Events Fog    
Averages and records for this station are not official NWS values.
T = Trace of Precipitation, MM = Missing Value Source: NWS Daily Summary

Daily Weather History Graph

Daily Weather History Graph

Search for Another Location

Airport or City:

Trip Planner

Search our weather history database for the weather conditions in past years. The results will help you decide how hot, cold, wet, or windy it might be!

Date:

Astronomy

Dec. 10, 2012 Rise Set
Actual Time 7:55 AM EST 5:02 PM EST
Civil Twilight 7:23 AM EST 5:34 PM EST
Nautical Twilight 6:48 AM EST 6:09 PM EST
Astronomical Twilight 6:13 AM EST 6:44 PM EST
Moon 4:35 AM EST (12/10) 2:53 PM EST (12/10)
Length of Visible Light 10h 10m
Length of Day
9h 06m
Waning Crescent, 10% of the Moon is Illuminated
Dec 10
Waning Crescent
Dec 13
New
Dec 20
First Quarter
Dec 28
Full
Jan 4
Last Quarter

Hourly Weather History & Observations

Time (EST) Temp. Windchill Dew Point Humidity Pressure Visibility Wind Dir Wind Speed Gust Speed Precip Events Conditions
12:14 AM 32.9 °F - 31.8 °F 96% 29.64 in 0.5 mi Calm Calm - N/A Fog Fog
12:34 AM 32.9 °F - 32.0 °F 96% 29.63 in 0.5 mi Calm Calm - N/A Fog Fog
12:55 AM 34.2 °F - 32.4 °F 93% 29.63 in 0.5 mi Calm Calm - N/A Fog Fog
1:14 AM 34.5 °F - 32.9 °F 94% 29.63 in 0.5 mi Calm Calm - N/A Fog Fog
1:35 AM 33.4 °F - 32.0 °F 94% 29.62 in 0.5 mi Calm Calm - N/A Fog Fog
1:55 AM 33.8 °F 30.8 °F 32.0 °F 93% 29.61 in 0.5 mi West 3.5 mph - N/A Fog Fog
2:14 AM 33.3 °F - 32.0 °F 95% 29.61 in 0.5 mi Calm Calm - N/A Fog Fog
2:35 AM 33.3 °F - 32.0 °F 95% 29.61 in 0.5 mi Calm Calm - N/A Fog Fog
2:54 AM 33.4 °F - 32.0 °F 94% 29.61 in 0.8 mi Calm Calm - N/A   Overcast
3:15 AM 33.4 °F 30.4 °F 32.0 °F 94% 29.61 in 0.8 mi WSW 3.5 mph - N/A   Overcast
3:54 AM 34.3 °F 30.2 °F 32.9 °F 94% 29.60 in 1.2 mi WSW 4.6 mph - N/A   Overcast
4:15 AM 35.1 °F 31.0 °F 33.8 °F 95% 29.59 in 1.5 mi WSW 4.6 mph - N/A   Overcast
4:35 AM 35.8 °F 30.9 °F 34.3 °F 94% 29.59 in 2.0 mi WSW 5.8 mph - N/A   Overcast
4:54 AM 36.5 °F 31.0 °F 35.1 °F 95% 29.60 in 2.5 mi WSW 6.9 mph - N/A   Overcast
5:15 AM 37.6 °F 30.5 °F 36.3 °F 95% 29.60 in 2.5 mi West 10.4 mph - N/A   Light Drizzle
5:34 AM 38.3 °F 31.4 °F 36.5 °F 93% 29.60 in 3.0 mi West 10.4 mph 19.6 mph N/A   Light Drizzle
5:55 AM 38.3 °F 30.1 °F 36.7 °F 94% 29.59 in 5.0 mi West 13.8 mph 18.4 mph N/A   Overcast
6:15 AM 38.7 °F 30.9 °F 36.9 °F 93% 29.60 in 10.0 mi WSW 12.7 mph 16.1 mph N/A   Overcast
6:34 AM 38.7 °F 31.4 °F 36.5 °F 92% 29.60 in 10.0 mi WSW 11.5 mph 17.3 mph N/A   Overcast
6:55 AM 38.8 °F 32.6 °F 36.5 °F 91% 29.61 in 10.0 mi West 9.2 mph - N/A   Overcast
7:14 AM 38.7 °F 33.6 °F 36.5 °F 92% 29.60 in 10.0 mi WSW 6.9 mph - N/A   Overcast
7:34 AM 38.7 °F 32.9 °F 36.1 °F 91% 29.61 in 10.0 mi WSW 8.1 mph - N/A   Overcast
8:14 AM 38.3 °F 31.4 °F 35.6 °F 90% 29.63 in 10.0 mi WSW 10.4 mph 18.4 mph N/A   Overcast
8:35 AM 37.9 °F 30.9 °F 35.2 °F 90% 29.63 in 10.0 mi WSW 10.4 mph - N/A   Overcast
8:54 AM 37.9 °F 31.5 °F 35.2 °F 90% 29.63 in 10.0 mi WSW 9.2 mph 16.1 mph N/A   Overcast
9:14 AM 38.1 °F 30.7 °F 35.2 °F 89% 29.64 in 5.0 mi West 11.5 mph - N/A   Overcast
9:35 AM 37.8 °F 31.8 °F 35.1 °F 90% 29.64 in 7.0 mi WNW 8.1 mph - N/A   Overcast
9:54 AM 37.8 °F 30.7 °F 35.2 °F 91% 29.64 in 5.0 mi WNW 10.4 mph - N/A   Overcast
10:14 AM 37.6 °F 30.5 °F 35.1 °F 91% 29.64 in 10.0 mi WNW 10.4 mph 16.1 mph N/A   Overcast
10:35 AM 37.0 °F 28.9 °F 34.2 °F 89% 29.65 in 10.0 mi WNW 12.7 mph 18.4 mph N/A   Overcast
10:54 AM 37.0 °F 28.5 °F 34.0 °F 89% 29.65 in 7.0 mi West 13.8 mph 20.7 mph N/A   Light Drizzle
11:14 AM 37.2 °F 30.6 °F 34.0 °F 88% 29.66 in 10.0 mi WNW 9.2 mph 16.1 mph N/A   Overcast
11:35 AM 38.3 °F 31.9 °F 34.3 °F 86% 29.65 in 10.0 mi WNW 9.2 mph - N/A   Overcast
11:54 AM 37.4 °F 29.3 °F 32.5 °F 83% 29.66 in 10.0 mi WNW 12.7 mph - N/A   Overcast
12:15 PM 37.2 °F 29.6 °F 32.7 °F 84% 29.65 in 10.0 mi NW 11.5 mph - N/A   Overcast
12:35 PM 36.0 °F 28.0 °F 32.0 °F 86% 29.66 in 10.0 mi NNW 11.5 mph - N/A   Overcast
12:54 PM 35.4 °F 29.0 °F 31.6 °F 86% 29.66 in 10.0 mi NW 8.1 mph 17.3 mph N/A   Overcast
1:15 PM 34.7 °F 26.4 °F 30.7 °F 85% 29.65 in 10.0 mi NNW 11.5 mph - N/A   Overcast
1:35 PM 34.0 °F 25.5 °F 30.6 °F 87% 29.66 in 10.0 mi NW 11.5 mph - N/A   Overcast
1:54 PM 33.8 °F 25.8 °F 30.2 °F 87% 29.66 in 10.0 mi NW 10.4 mph - N/A   Overcast
2:15 PM 33.3 °F 27.1 °F 29.3 °F 85% 29.66 in 10.0 mi NNW 6.9 mph - N/A   Overcast
2:34 PM 33.8 °F 27.0 °F 28.8 °F 82% 29.66 in 10.0 mi NW 8.1 mph - N/A   Mostly Cloudy
2:55 PM 33.6 °F 25.0 °F 27.5 °F 78% 29.67 in 10.0 mi NNW 11.5 mph 17.3 mph N/A   Mostly Cloudy
3:15 PM 33.4 °F 25.9 °F 26.8 °F 77% 29.68 in 10.0 mi NNW 9.2 mph 16.1 mph N/A   Overcast
3:34 PM 33.3 °F 27.9 °F 26.8 °F 77% 29.69 in 10.0 mi NNW 5.8 mph - N/A   Overcast
3:55 PM 32.9 °F 27.5 °F 26.2 °F 76% 29.70 in 10.0 mi NNW 5.8 mph - N/A   Overcast
4:14 PM 32.9 °F 26.7 °F 26.6 °F 78% 29.70 in 10.0 mi NW 6.9 mph - N/A   Overcast
4:34 PM 32.9 °F 28.5 °F 26.6 °F 78% 29.70 in 10.0 mi NW 4.6 mph - N/A   Mostly Cloudy
4:55 PM 32.7 °F 29.6 °F 26.6 °F 78% 29.71 in 10.0 mi WNW 3.5 mph - N/A   Mostly Cloudy
5:14 PM 32.4 °F 27.9 °F 26.6 °F 79% 29.71 in 10.0 mi WNW 4.6 mph - N/A   Mostly Cloudy
5:34 PM 32.9 °F 29.8 °F 27.0 °F 79% 29.73 in 10.0 mi West 3.5 mph - N/A   Overcast
5:55 PM 32.9 °F 25.9 °F 26.6 °F 78% 29.74 in 10.0 mi WNW 8.1 mph - N/A   Overcast
6:14 PM 32.9 °F 26.7 °F 26.6 °F 78% 29.75 in 10.0 mi WNW 6.9 mph - N/A   Overcast
6:34 PM 32.9 °F 25.3 °F 24.8 °F 72% 29.76 in 10.0 mi WNW 9.2 mph - N/A   Overcast
6:55 PM 32.9 °F 24.7 °F 24.4 °F 71% 29.77 in 10.0 mi WNW 10.4 mph - N/A   Overcast
7:14 PM 32.9 °F 25.9 °F 24.8 °F 72% 29.77 in 10.0 mi NW 8.1 mph - N/A   Overcast
7:34 PM 32.5 °F 23.7 °F 23.5 °F 69% 29.77 in 10.0 mi NNW 11.5 mph - N/A   Overcast
8:14 PM 32.0 °F 26.4 °F 23.2 °F 70% 29.79 in 10.0 mi NNW 5.8 mph - N/A   Overcast
8:35 PM 32.0 °F 25.6 °F 23.0 °F 69% 29.79 in 10.0 mi NNW 6.9 mph - N/A   Overcast
8:55 PM 32.0 °F 26.4 °F 22.8 °F 69% 29.80 in 10.0 mi North 5.8 mph - N/A   Overcast
9:14 PM 31.6 °F 24.4 °F 22.1 °F 68% 29.80 in 10.0 mi NNW 8.1 mph - N/A   Overcast
9:35 PM 31.1 °F 26.4 °F 21.0 °F 66% 29.81 in 10.0 mi North 4.6 mph - N/A   Overcast
9:54 PM 31.1 °F 24.5 °F 21.0 °F 66% 29.82 in 10.0 mi NNW 6.9 mph - N/A   Overcast
10:14 PM 31.1 °F 25.4 °F 20.8 °F 66% 29.83 in 10.0 mi NNW 5.8 mph - N/A   Overcast
10:35 PM 30.9 °F 24.3 °F 21.0 °F 67% 29.84 in 10.0 mi NNW 6.9 mph - N/A   Overcast
10:54 PM 30.7 °F 23.3 °F 21.6 °F 69% 29.84 in 10.0 mi NW 8.1 mph - N/A   Overcast
11:14 PM 30.4 °F 24.5 °F 21.2 °F 69% 29.85 in 10.0 mi NW 5.8 mph - N/A   Overcast
11:35 PM 30.0 °F 25.2 °F 21.2 °F 70% 29.85 in 10.0 mi North 4.6 mph - N/A   Overcast
11:54 PM 29.8 °F 26.3 °F 21.0 °F 70% 29.85 in 10.0 mi NNE 3.5 mph - N/A   Overcast